Terminal Aerodrome Forecast
Issued by NWS

Home | Current Version | Previous Version | Text Only | Print | Product List | Glossary On
Versions: 1 2 3 4 5 6 7 8 9 10 11 12 13 14 15 16 17 18 19 20 21 22
000
FTUS45 KRIW 271700
TAFJAC
TAF
KJAC 271736Z 2718/2818 VRB04KT 2SM BR OVC003
      TEMPO 2718/2720 1/2SM FZFG
     FM272000 20007KT P6SM FEW030 SCT100 BKN150
     FM272300 19005KT P6SM VCSH SCT030 BKN050
     FM280600 20005KT 2SM -SN SCT012 OVC025
      AMD LTD TO CLD VIS AND WIND=

USA.gov is the U.S. government's official web portal to all federal, state and local government web resources and services.